This demonstration page uses our WeatherBlox Daily Observations layout. Learn more.

Left ArrowRight Arrow

40.92945, -100.16068

Hourly Observations for October 5, 2016

Temp ( °F °C ) Dew Point ( °F °C ) Humidity (%) Winds ( mph kmh ) Pressure ( in mb ) Visibility ( mi km ) Precip ( " mm )
12:15 am 00:15 Clear 43 6.3 38 3.3 81 81 W 6 9 29.83 1010 10 16 N/A
12:35 am 00:35 Clear 42 5.8 37 3 82 82 WNW 8 13 29.80 1009 10 16 N/A
12:55 am 00:55 Clear 43 6 38 3.1 82 82 WNW 8 13 29.83 1010 10 16 N/A
1:15 am 01:15 Clear 42 5.5 37 2.7 82 82 WNW 3 6 29.83 1010 10 16 N/A
1:35 am 01:35 Clear 43 5.9 38 3.1 82 82 N N/A 29.83 1010 10 16 N/A
1:55 am 01:55 Clear 41 4.8 37 2.6 86 86 N N/A 29.83 1010 10 16 N/A
2:15 am 02:15 Clear 41 5 37 2.6 85 85 N N/A 29.88 1012 10 16 N/A
2:35 am 02:35 Clear 40 4.7 36 2.2 84 84 NW 7 11 29.88 1012 10 16 N/A
2:55 am 02:55 Clear 39 4.1 35 1.9 86 86 NNW 7 11 29.88 1012 10 16 N/A
3:15 am 03:15 Clear 41 5.1 36 2.2 82 82 NW 7 11 29.85 1011 10 16 N/A
3:35 am 03:35 Clear 41 5 36 2.2 82 82 N N/A 29.91 1013 10 16 N/A
3:55 am 03:55 Clear 41 5.1 36 2.1 81 81 W 5 7 29.91 1013 10 16 N/A
4:15 am 04:15 Clear 41 4.9 36 2.4 84 84 WNW 6 9 29.91 1013 10 16 N/A
4:35 am 04:35 Clear 40 4.5 36 2.3 86 86 W 6 9 29.94 1014 10 16 N/A
4:55 am 04:55 Clear 41 4.9 37 2.9 87 87 W 7 11 29.94 1014 10 16 N/A
5:15 am 05:15 Clear 43 5.9 38 3.5 85 85 W 3 6 29.97 1015 10 16 N/A
5:35 am 05:35 Clear 43 6.3 39 3.8 84 84 W 3 6 29.94 1014 10 16 N/A
5:55 am 05:55 Clear 43 6.1 39 4 87 87 W 3 6 29.94 1014 10 16 N/A
6:15 am 06:15 Clear 43 6.2 39 4 86 86 WNW 3 6 29.94 1014 10 16 N/A
6:35 am 06:35 Clear 43 6.1 40 4.2 88 88 N N/A 29.94 1014 10 16 N/A
6:55 am 06:55 Clear 42 5.5 39 3.7 88 88 NW 3 6 29.97 1015 10 16 N/A
7:15 am 07:15 Clear 42 5.4 38 3.4 87 87 N N/A 29.97 1015 10 16 N/A
7:35 am 07:35 Clear 40 4.6 38 3.3 91 91 N N/A 30.00 1016 10 16 N/A
7:55 am 07:55 Sunny 41 4.8 38 3.2 90 90 N N/A 30.00 1016 10 16 N/A
8:15 am 08:15 Sunny 42 5.4 39 4.1 91 91 N N/A 30.00 1016 10 16 N/A
8:35 am 08:35 Sunny 44 6.9 41 4.9 87 87 N N/A 29.97 1015 10 16 N/A
8:55 am 08:55 Sunny 46 7.7 40 4.6 81 81 N N/A 30.00 1016 10 16 N/A
9:15 am 09:15 Sunny 47 8.5 42 5.3 81 81 N N/A 30.00 1016 10 16 N/A
9:35 am 09:35 Sunny 50 10 42 5.3 73 73 N N/A 29.97 1015 10 16 N/A
9:55 am 09:55 Sunny 52 10.9 41 4.8 66 66 N N/A 29.97 1015 10 16 N/A
10:15 am 10:15 Sunny 54 12 39 4 58 58 N N/A 29.97 1015 10 16 N/A
10:35 am 10:35 Sunny 55 12.8 38 3.3 53 53 N N/A 29.97 1015 10 16 N/A
10:55 am 10:55 Sunny 56 13.6 38 3.5 51 51 N N/A 29.94 1014 10 16 N/A
11:15 am 11:15 Sunny 58 14.6 39 4 49 49 N N/A 29.94 1014 10 16 N/A
11:35 am 11:35 Sunny 61 15.9 38 3.1 43 43 N N/A 29.94 1014 10 16 N/A
11:55 am 11:55 Sunny 62 16.5 37 2.6 40 40 SSE 5 7 29.91 1013 10 16 N/A
12:15 pm 12:15 Sunny 64 17.5 37 2.7 37 37 S 6 9 29.91 1013 10 16 N/A
12:35 pm 12:35 Sunny 65 18.1 37 2.9 36 36 S 5 7 29.88 1012 10 16 N/A
12:55 pm 12:55 Sunny 66 19 37 2.7 34 34 SE 3 6 29.88 1012 10 16 N/A
1:15 pm 13:15 Sunny 67 19.6 37 2.7 33 33 S 6 9 29.85 1011 10 16 N/A
1:35 pm 13:35 Sunny 69 20.5 35 1.7 29 29 SW 6 9 29.83 1010 10 16 N/A
1:55 pm 13:55 Sunny 70 21.2 35 1.9 28 28 N N/A 29.83 1010 10 16 N/A
2:15 pm 14:15 Sunny 71 21.6 35 1.8 27 27 S 6 9 29.83 1010 10 16 N/A
2:35 pm 14:35 Sunny 71 21.6 33 0.7 25 25 N N/A 29.80 1009 10 16 N/A
2:55 pm 14:55 Sunny 72 22.3 33 0.7 24 24 WSW 3 6 29.77 1008 10 16 N/A
3:15 pm 15:15 Sunny 73 22.5 33 0.5 23 23 N N/A 29.77 1008 10 16 N/A
3:35 pm 15:35 Sunny 74 23.1 32 0.2 22 22 S 5 7 29.77 1008 10 16 N/A
3:55 pm 15:55 Sunny 73 23 32 0.1 22 22 S 9 15 29.77 1008 10 16 N/A
4:15 pm 16:15 Sunny 74 23.2 32 undefined 22 22 SSW 7 11 29.77 1008 10 16 N/A
4:35 pm 16:35 Sunny 74 23.2 31 -0.5 21 21 WSW 7 11 29.77 1008 10 16 N/A
4:55 pm 16:55 Sunny 74 23.3 31 -0.3 21 21 SW 8 13 29.77 1008 10 16 N/A
5:15 pm 17:15 Sunny 74 23.3 32 0.1 22 22 SSW 15 24 29.77 1008 10 16 N/A
5:35 pm 17:35 Sunny 73 23 32 0.2 22 22 SSW 9 15 29.77 1008 10 16 N/A
5:55 pm 17:55 Sunny 73 22.7 33 0.5 23 23 SSW 5 7 29.77 1008 10 16 N/A
6:15 pm 18:15 Sunny 72 22.1 33 0.8 24 24 S 9 15 29.80 1009 10 16 N/A
6:35 pm 18:35 Sunny 69 20.4 37 2.8 31 31 SSE 5 7 29.80 1009 10 16 N/A
6:55 pm 18:55 Sunny 67 19.3 37 2.5 33 33 SSE 6 9 29.83 1010 10 16 N/A
7:15 pm 19:15 Clear 65 18.3 35 1.7 33 33 SE 6 9 29.85 1011 10 16 N/A
7:35 pm 19:35 Clear 63 17.3 36 2.1 36 36 SE 7 11 29.85 1011 10 16 N/A
7:55 pm 19:55 Clear 61 16 37 2.7 41 41 ESE 8 13 29.85 1011 10 16 N/A
8:15 pm 20:15 Clear 61 15.9 37 2.5 41 41 ESE 8 13 29.85 1011 10 16 N/A
8:35 pm 20:35 Clear 59 15.2 38 3.1 44 44 ESE 8 13 29.88 1012 10 16 N/A
8:55 pm 20:55 Clear 61 15.9 37 2.8 42 42 ESE 8 13 29.85 1011 10 16 N/A
9:15 pm 21:15 Clear 59 14.8 38 3.2 46 46 ESE 8 13 29.88 1012 10 16 N/A
9:35 pm 21:35 Clear 58 14.3 38 3.4 48 48 SE 8 13 29.88 1012 10 16 N/A
9:55 pm 21:55 Clear 58 14.3 39 4 50 50 SE 9 15 29.88 1012 10 16 N/A
10:15 pm 22:15 Clear 57 14 40 4.2 52 52 SE 7 11 29.88 1012 10 16 N/A
10:35 pm 22:35 Clear 55 12.9 40 4.5 57 57 SE 8 13 29.88 1012 10 16 N/A
10:55 pm 22:55 Clear 54 12.3 40 4.6 60 60 SE 7 11 29.94 1014 10 16 N/A
11:15 pm 23:15 Clear 53 11.6 40 4.7 63 63 SE 6 9 29.94 1014 10 16 N/A
11:35 pm 23:35 Clear 53 11.5 41 5 65 65 ESE 6 9 29.94 1014 10 16 N/A
11:55 pm 23:55 Clear 54 12.3 42 5.5 63 63 E 6 9 29.94 1014 10 16 N/A

Powered by AerisWeather